Salina, KS

1:39 AM CDT on May 24, 2017 (GMT -0500)
Salina Municipal

Weather History for KSLN - August, 2015

Change the Weather History Date:

Saturday, August 8, 2015

  Actual Average Record
Temperature  
Mean Temperature 84 °F 81 °F  
Max Temperature 96 °F 92 °F 111 °F (1934)
Min Temperature 71 °F 69 °F 51 °F (1989)
Degree Days  
Heating Degree Days 0 0  
Month to date heating degree days 0 0  
Since 1 June heating degree days 0 7  
Since 1 July heating degree days 0 0  
Cooling Degree Days 19 16  
Month to date cooling degree days 130 128  
Year to date cooling degree days 1210 1082  
Since 1 June cooling degree days 1120 954  
Growing Degree Days 33 (Base 50)    
Moisture  
Dew Point 70 °F    
Average Humidity 68    
Maximum Humidity 84    
Minimum Humidity 52    
Precipitation  
Precipitation 0.00 in 0.14 in 1.85 in (1960)
Month to date precipitation 2.21 1.11  
Year to date precipitation 22.17 21.50  
Sea Level Pressure  
Sea Level Pressure 29.80 in    
Wind  
Wind Speed 11 mph (SE)    
Max Wind Speed 33 mph    
Max Gust Speed 40 mph    
Visibility 10 miles    
Events      
T = Trace of Precipitation, MM = Missing Value Source: NWS Daily Summary

Daily Weather History Graph

Daily Weather History Graph

Search for Another Location

Airport or City:

Trip Planner

Search our weather history database for the weather conditions in past years. The results will help you decide how hot, cold, wet, or windy it might be!

Date:

Astronomy

Aug. 08, 2015 Rise Set
Actual Time 6:37 AM CDT 8:34 PM CDT
Civil Twilight 6:08 AM CDT 9:02 PM CDT
Nautical Twilight 5:33 AM CDT 9:38 PM CDT
Astronomical Twilight 4:55 AM CDT 10:16 PM CDT
Moon 1:28 AM CDT (8/8) 3:48 PM CDT (8/8)
Length of Visible Light 14h 54m
Length of Day
13h 56m
Waning Crescent, 33% of the Moon is Illuminated
Aug 8
Waning Crescent
Aug 14
New
Aug 22
First Quarter
Aug 29
Full
Sep 5
Last Quarter

Hourly Weather History & Observations

Time (CDT) Temp. Heat Index Dew Point Humidity Pressure Visibility Wind Dir Wind Speed Gust Speed Precip Events Conditions
12:53 AM 81.0 °F 84.9 °F 71.1 °F 72% 29.75 in 10.0 mi SSE 12.7 mph - N/A   Clear
1:53 AM 81.0 °F 85.2 °F 72.0 °F 74% 29.75 in 10.0 mi SSE 11.5 mph - N/A   Clear
2:53 AM 80.1 °F 83.6 °F 71.1 °F 74% 29.81 in 10.0 mi NNE 13.8 mph 26.5 mph N/A   Partly Cloudy
3:23 AM 77.0 °F - 66.9 °F 71% 29.92 in 10.0 mi NNW 29.9 mph 35.7 mph N/A   Mostly Cloudy
3:40 AM 72.0 °F - 66.9 °F 84% 29.94 in 9.0 mi North 24.2 mph 36.8 mph N/A   Overcast
3:53 AM 72.0 °F - 66.9 °F 84% 29.88 in 10.0 mi NNE 23.0 mph 32.2 mph N/A   Overcast
4:53 AM 71.1 °F - 66.0 °F 84% 29.87 in 10.0 mi NE 11.5 mph 20.7 mph N/A   Clear
5:51 AM 71.6 °F - 66.2 °F 83% 29.92 in 10.0 mi East 10.4 mph - N/A   Partly Cloudy
5:53 AM 71.1 °F - 66.0 °F 84% 29.87 in 10.0 mi East 9.2 mph - N/A   Clear
6:53 AM 72.0 °F - 64.9 °F 78% 29.87 in 10.0 mi East 11.5 mph - N/A   Clear
7:53 AM 72.0 °F - 64.9 °F 78% 29.86 in 10.0 mi East 11.5 mph - N/A   Clear
8:53 AM 75.9 °F - 64.9 °F 69% 29.83 in 10.0 mi ESE 18.4 mph 26.5 mph N/A   Clear
9:53 AM 80.1 °F 82.1 °F 66.0 °F 62% 29.80 in 10.0 mi SE 18.4 mph - N/A   Clear
10:53 AM 81.0 °F 83.8 °F 68.0 °F 65% 29.78 in 10.0 mi SE 17.3 mph - N/A   Clear
11:53 AM 84.9 °F 88.8 °F 69.1 °F 59% 29.78 in 10.0 mi SSE 16.1 mph - N/A   Clear
12:53 PM 89.1 °F 96.0 °F 72.0 °F 57% 29.76 in 10.0 mi SSE 16.1 mph - N/A   Clear
1:53 PM 93.0 °F 103.2 °F 73.9 °F 54% 29.74 in 10.0 mi South 15.0 mph 23.0 mph N/A   Clear
2:53 PM 95.0 °F 106.7 °F 75.0 °F 52% 29.73 in 10.0 mi South 15.0 mph 23.0 mph N/A   Clear
3:53 PM 95.0 °F 106.7 °F 75.0 °F 52% 29.73 in 10.0 mi South 13.8 mph - N/A   Clear
4:53 PM 91.9 °F 99.5 °F 72.0 °F 52% 29.72 in 10.0 mi South 12.7 mph 21.9 mph N/A   Clear
5:53 PM 90.0 °F 97.9 °F 73.0 °F 57% 29.73 in 10.0 mi SE 9.2 mph - N/A   Clear
6:53 PM 88.0 °F 95.6 °F 73.0 °F 61% 29.73 in 10.0 mi SE 6.9 mph - N/A   Clear
7:53 PM 87.1 °F 94.5 °F 73.0 °F 63% 29.75 in 10.0 mi West 5.8 mph - N/A   Clear
8:53 PM 84.0 °F 91.2 °F 73.9 °F 72% 29.72 in 10.0 mi South 6.9 mph - N/A   Clear
9:53 PM 84.0 °F 91.2 °F 73.9 °F 72% 29.74 in 10.0 mi Calm Calm - N/A   Clear
10:53 PM 82.9 °F 89.4 °F 73.9 °F 74% 29.75 in 10.0 mi Calm Calm - N/A   Clear
11:53 PM 81.0 °F 86.2 °F 73.9 °F 79% 29.78 in 10.0 mi West 6.9 mph - N/A   Clear